OPS 4682 DEB, 12102

Orbit data source: Space-Track

OPS 4682 DEB, 12102 is space debris in LEO originally from a launch on Sat, 03 Apr 1965 UTC launched from the Air Force Western Test Range (AFWTR). Debris objects in space refer to the collection of defunct objects orbiting the Earth. Examples of debris include non-operational satellites, rocket bodies, and fragments generated from explosions, collisions, or faulty payload assembly.

Loading next visibility...
Identifier
12102, 1965-027G
Orbit
LEO
Country
Flag of USUS
Related business
Manufacturer
Unknown
Mission
Spacecraft
Bus & Motor
Unknown
Mass
Unknown
Launch date (UTC)
1965-04-03 (61 years ago)
Launch vehicle
Unknown
Launch site
Air Force Western Test Range (AFWTR)
Object type
Payload
Rocket body
Debris
Shape & HBR
Unknown shape, 0.1 m
Radar Cross Section
Small (<0.1 m²)

Expand to show TLE details & history
Last TLE update: 1 day ago

TLE from 1 day ago
0 OPS 4682 DEB
1 12102U 65027G   26034.87746603 -.00000193  00000-0 -67867-3 0  9994
2 12102  90.2496  11.4882 0025584 338.6505  49.7056 12.98696537873438
Epoch: 2026-02-03T21:03Z
TLE epoch observation values (Epoch: 2026-02-03T21:03:33.064Z)
Latitude
28.62064°
Longitude
-78.58718°
Altitude
1,258.114 km
Speed
7.235 km/s
True Right ascension
00h 45m 24s
True Declination
28° 29' 09"
Sunlit
Object was in daylight at epoch
Visualization orbit readout
Latitude
Unknown
Longitude
Unknown
Altitude
Unknown
Speed
Unknown
Apparent Right ascension
Unknown
Apparent Declination
Unknown
Sunlit
N/A
Visualization observer readout
Local Sidereal Time
08:45:43
Azimuth
Unknown
Elevation
Unknown
Doppler factor
Unknown
Orbital elements
Apogee altitude
1,283.879 km
Perigee altitude
1,244.774 km
Semi-major axis
7,642.464 km
Eccentricity
0.00256
Inclination
90.2496°
RAAN
11.4882°
Arg. of periapsis
338.6505°
True anomaly
49.92967°
Mean anomaly
49.7056°
Eccentric anomaly
49.81759°
Mean motion
3.24858 °/min
Orbital period
110.82 mins
BSTAR
-0.00067867
Loading maneuver chart data...
Computing Atmospheric mass density...
Loading historical data...
Loading historical data...
Loading historical data...
Loading historical data...
Loading historical data...
Loading historical data...
Loading historical data...

Documentation

Showing up to 5 results
|